| time (UTC) | temp F | wind direction | speed MPH | gust MPH | rain 1hr in | rain 24hr in | rain mn in | humidity % | barometer mb |
| 20260505034549 | 52 | 125 | 0.0 | 0.0 | 0.00 | 0.62 | 0.08 | 99 | 1007.9 |
| 20260505033051 | 52 | 125 | 0.0 | 0.0 | 0.00 | 0.62 | 0.08 | 99 | 1008.1 |
| 20260505031605 | 52 | 125 | 0.0 | 1.0 | 0.00 | 0.62 | 0.08 | 99 | 1008.1 |
| 20260505030053 | 52 | 122 | 0.0 | 0.0 | 0.00 | 0.62 | 0.08 | 99 | 1008.0 |
| 20260505024600 | 52 | 253 | 0.0 | 0.0 | 0.01 | 0.71 | 0.08 | 99 | 1008.1 |
| 20260505023108 | 52 | 255 | 0.0 | 0.0 | 0.01 | 0.71 | 0.08 | 99 | 1008.1 |
| 20260505021558 | 52 | 255 | 0.0 | 0.0 | 0.01 | 0.71 | 0.08 | 99 | 1008.2 |
| 20260505014543 | 52 | 255 | 0.0 | 1.0 | 0.00 | 0.77 | 0.07 | 99 | 1008.1 |
| 20260505013109 | 52 | 240 | 0.0 | 1.0 | 0.00 | 0.77 | 0.07 | 99 | 1008.0 |
| 20260505011546 | 52 | 168 | 0.0 | 0.0 | 0.00 | 0.77 | 0.07 | 99 | 1008.1 |
| 20260505010054 | 52 | 238 | 0.0 | 1.0 | 0.00 | 0.77 | 0.07 | 99 | 1008.2 |
| 20260505004556 | 52 | 233 | 0.0 | 2.0 | 0.00 | 0.87 | 0.07 | 99 | 1008.5 |
| 20260505003055 | 53 | 209 | 0.0 | 3.0 | 0.01 | 0.87 | 0.07 | 99 | 1008.8 |
| 20260505001551 | 53 | 243 | 0.0 | 3.0 | 0.02 | 0.87 | 0.07 | 99 | 1008.8 |
| 20260505000117 | 53 | 225 | 0.0 | 2.0 | 0.03 | 0.87 | 0.07 | 99 | 1008.9 |
| 20260504234600 | 53 | 245 | 1.0 | 5.0 | 0.06 | 0.89 | 0.07 | 99 | 1009.0 |
| 20260504233111 | 53 | 248 | 0.0 | 4.0 | 0.06 | 0.88 | 0.06 | 98 | 1009.1 |
| 20260504231605 | 53 | 210 | 1.0 | 6.0 | 0.06 | 0.87 | 0.06 | 98 | 1009.2 |
| 20260504230109 | 53 | 246 | 1.0 | 5.0 | 0.04 | 0.86 | 0.04 | 98 | 1009.3 |
| 20260504224558 | 53 | 228 | 2.0 | 5.0 | 0.02 | 0.86 | 0.02 | 98 | 1009.2 |
| 20260504223106 | 53 | 205 | 3.0 | 6.0 | 0.01 | 0.85 | 0.01 | 98 | 1009.2 |
| 20260504221608 | 53 | 264 | 1.0 | 6.0 | 0.01 | 0.84 | 0.00 | 98 | 1009.2 |
| 20260504220002 | 53 | 259 | 2.0 | 7.0 | 0.02 | 0.84 | 0.00 | 98 | 1009.3 |
| 20260504214547 | 53 | 231 | 3.0 | 7.0 | 0.02 | 0.85 | 0.84 | 98 | 1009.3 |
| 20260504213058 | 53 | 219 | 1.0 | 4.0 | 0.04 | 0.85 | 0.84 | 98 | 1009.6 |
| 20260504211621 | 53 | 219 | 0.0 | 3.0 | 0.06 | 0.84 | 0.83 | 98 | 1009.7 |
| 20260504210057 | 53 | 229 | 1.0 | 5.0 | 0.06 | 0.83 | 0.83 | 97 | 1009.9 |
| 20260504204549 | 53 | 230 | 0.0 | 3.0 | 0.06 | 0.83 | 0.82 | 97 | 1010.1 |
| 20260504203117 | 54 | 234 | 1.0 | 6.0 | 0.06 | 0.82 | 0.80 | 97 | 1010.4 |
| 20260504201553 | 54 | 247 | 1.0 | 7.0 | 0.06 | 0.80 | 0.78 | 96 | 1010.4 |
| 20260504200050 | 55 | 159 | 4.0 | 8.0 | 0.05 | 0.79 | 0.77 | 95 | 1010.2 |
| 20260504194549 | 55 | 214 | 7.0 | 12.0 | 0.04 | 0.83 | 0.76 | 95 | 1010.1 |
| 20260504193057 | 56 | 221 | 1.0 | 8.0 | 0.02 | 0.81 | 0.74 | 93 | 1009.0 |
| 20260504191553 | 56 | 173 | 2.0 | 8.0 | 0.00 | 0.80 | 0.72 | 92 | 1009.0 |
| 20260504190126 | 57 | 297 | 1.0 | 6.0 | 0.00 | 0.80 | 0.72 | 91 | 1008.8 |
| 20260504184553 | 58 | 314 | 0.0 | 6.0 | 0.00 | 0.80 | 0.72 | 92 | 1008.6 |
| 20260504183102 | 58 | 278 | 0.0 | 2.0 | 0.01 | 0.80 | 0.72 | 93 | 1008.6 |
| 20260504181557 | 58 | 309 | 0.0 | 2.0 | 0.02 | 0.80 | 0.72 | 94 | 1008.7 |
| 20260504180117 | 58 | 131 | 0.0 | 1.0 | 0.02 | 0.80 | 0.72 | 94 | 1008.7 |
| 20260504174554 | 58 | 354 | 0.0 | 1.0 | 0.02 | 0.89 | 0.72 | 94 | 1008.8 |
| 20260504173055 | 58 | 3 | 0.0 | 1.0 | 0.02 | 0.88 | 0.72 | 94 | 1008.9 |
| 20260504171551 | 58 | 233 | 0.0 | 5.0 | 0.01 | 0.87 | 0.71 | 92 | 1009.1 |
| 20260504140107 | 66 | 298 | 0.0 | 4.0 | 0.00 | 0.87 | 0.70 | 78 | 1009.8 |
| 20260504130112 | 62 | 286 | 0.0 | 1.0 | 0.00 | 0.87 | 0.70 | 85 | 1010.3 |
| 20260504100104 | 55 | 60 | 0.0 | 0.0 | 0.00 | 0.87 | 0.70 | 99 | 1011.8 |
| 20260504090105 | 53 | 56 | 0.0 | 1.0 | 0.01 | 0.87 | 0.70 | 100 | 1011.9 |
| 20260504081548 | 53 | 56 | 0.0 | 0.0 | 0.10 | 0.86 | 0.69 | 100 | 1012.0 |
| 20260504080113 | 52 | 55 | 0.0 | 0.0 | 0.13 | 0.86 | 0.69 | 100 | 1012.1 |
| 20260504070105 | 52 | 224 | 0.0 | 1.0 | 0.07 | 0.73 | 0.56 | 100 | 1011.8 |
| 20260504050104 | 52 | 224 | 0.0 | 0.0 | 0.06 | 0.61 | 0.39 | 99 | 1011.3 |
| 20260504044552 | 52 | 224 | 0.0 | 0.0 | 0.05 | 0.64 | 0.37 | 99 | 1011.3 |
| 20260504043053 | 52 | 224 | 0.0 | 1.0 | 0.03 | 0.62 | 0.35 | 99 | 1011.3 |
| 20260504041605 | 52 | 225 | 0.0 | 1.0 | 0.02 | 0.60 | 0.33 | 99 | 1011.4 |
| 20260504040105 | 52 | 225 | 0.0 | 1.0 | 0.03 | 0.60 | 0.33 | 99 | 1011.5 |